Flag for Canada Weather past 2 weeks in Happy Valley-Goose Bay, Newfoundland and Labrador, Canada

9 °F

Passing clouds.

Feels Like: -7 °F
Forecast: 2 / 12 °F
Wind: 13 mph from Southwest

Location: Goose

Current Time: Nov 28, 2015 at 11:55:11 AM

Latest Report: Nov 28, 2015 at 11:00 AM

Visibility: 15 mi

Pressure: 30.21 "Hg

Humidity: 66%

Dew point: 0 °F

Location of Happy Valley-Goose BayLocation

Historic Weather in Happy Valley-Goose Bay — Graph


Happy Valley-Goose Bay temperature yesterday

Maximum temperature yesterday: 36 °F (at 12:00 AM)
Minimum temperature yesterday: 18 °F (at 7:00 PM)
Average temperature yesterday: 24 °F

Past Weeks' High & Low Weather Summary

High41 °F (Nov 20, 2:00 PM)100% (Nov 13, 12:00 PM)30.69 "Hg (Nov 13, 12:00 PM)
Low5 °F (Nov 28, 6:00 AM)63% (Nov 27, 1:00 PM)29.66 "Hg (Nov 24, 5:00 AM)
Average27 °F83%30.12 "Hg
* Reported Nov 13 10:00 AM — Nov 28 10:00 AM, Happy Valley-Goose Bay, Weather by CustomWeather, © 2015

Note: Actual official high and low records may vary slightly from our data, if they occured in-between our weather recording intervals... More about our weather records


Happy Valley-Goose Bay weather history for previous 24 hours

Time TempWeatherWind HumidityBarometerVisibility
10:00 AM
Sat, Nov 28
7 °FPassing clouds.16 mph66%30.22 "Hg15 mi
9:00 AM7 °FSunny.14 mph66%30.23 "Hg15 mi
8:00 AM5 °FSunny.14 mph72%30.23 "Hg15 mi
7:00 AM5 °FClear.9 mph72%30.25 "Hg15 mi
6:00 AM5 °FPassing clouds.8 mph72%30.24 "Hg15 mi
5:00 AM7 °FLow level haze.12 mph72%30.22 "Hg15 mi
4:00 AM10 °FLow level haze.13 mph67%30.18 "Hg15 mi
3:00 AM12 °FPassing clouds.13 mph73%30.15 "Hg15 mi
2:00 AM16 °FPassing clouds.13 mph73%30.11 "Hg15 mi
1:00 AM18 °FPassing clouds.10 mph73%30.08 "Hg15 mi
12:00 AM19 °FOvercast.8 mph86%30.08 "Hg15 mi
11:53 PM
Fri, Nov 27
21 °FOvercast.8 mph80%30.08 "Hg15 mi
11:00 PM21 °FSnow flurries. Mostly cloudy.7 mph86%30.07 "Hg15 mi
10:00 PM19 °FMostly cloudy.7 mph93%30.06 "Hg15 mi
9:00 PM18 °FSnow flurries. Mostly cloudy.3 mph93%30.05 "Hg15 mi
8:00 PM18 °FMostly cloudy.3 mph86%30.05 "Hg15 mi
7:00 PM18 °FMostly cloudy.3 mph93%30.06 "Hg15 mi
6:00 PM19 °FPassing clouds.3 mph86%30.06 "Hg15 mi
5:00 PM19 °FPassing clouds.2 mph86%30.06 "Hg15 mi
4:00 PM19 °FPassing clouds.2 mph86%30.06 "Hg15 mi
3:00 PM21 °FPartly sunny.3 mph74%30.06 "Hg15 mi
2:00 PM21 °FLight snow. Partly sunny.5 mph74%30.06 "Hg15 mi
1:00 PM23 °FLight snow. Partly sunny.No wind63%30.07 "Hg15 mi
12:00 PM23 °FLight snow. Broken clouds.7 mph74%30.08 "Hg6 mi
11:00 AM23 °FLight snow. Overcast.3 mph86%30.10 "Hg1 mi
Weather by CustomWeather, © 2015

See weather overviewHow to use our weather pages